Temp
44 45 44 44 44 44 43 42 43 42 42 43 42 43 43 44 43 41 40 40 39 39 40 41 42 43 43 43 43 43 43 43 43 44 43 42 42 41 40 39 39 39
44 44 44 44 44 44 44 44 43 43 42 43 43 44 44 44 44 43 41 39 39 38 38 39 40 41 42 43 43 42 42 42 42 43 42 41 41 40 40 39 39 39
43 43 43 43 43 43 43 44 44 43 43 43 43 43 42 43 43 43 42 40 39 39 39 38 38 39 40 41 42 42 42 41 41 42 42 41 41 41 40 39 38 37
43 43 43 43 43 43 44 43 43 43 43 42 42 43 43 42 42 42 41 41 40 39 39 38 38 39 39 39 40 41 42 41 42 42 41 41 42 41 40 40 38 37
42 43 43 43 43 43 43 42 42 43 42 42 43 43 42 42 42 42 42 40 40 39 38 38 38 37 37 38 38 38 40 41 42 41 40 40 41 40 40 39 37 36
42 43 43 43 43 42 42 42 42 42 42 42 42 43 43 42 42 41 42 42 41 40 39 36 38 37 37 36 36 37 39 40 41 40 39 39 39 40 39 38 37 35
41 41 41 42 42 42 42 42 42 42 42 42 42 42 43 42 42 42 42 41 41 41 39 37 37 37 37 36 35 35 37 38 40 40 38 38 39 38 38 37 36 33
40 41 41 41 41 41 41 41 41 41 41 41 41 42 43 42 42 42 42 42 41 41 40 38 38 37 37 37 35 35 35 36 37 38 38 37 37 36 34 34 33 31
41 41 41 40 39 39 39 40 40 40 41 40 40 41 42 42 42 42 42 41 40 40 39 39 38 38 38 36 35 35 34 35 36 36 36 35 34 33 32 32 31 30
40 41 40 40 40 40 39 39 40 39 40 40 40 41 41 42 41 41 40 40 39 39 38 38 39 39 38 37 36 36 35 34 35 34 34 33 32 32 31 30 29 29
38 39 40 40 40 41 40 40 40 40 40 39 40 40 39 40 40 40 39 38 38 38 37 38 38 38 37 37 36 37 36 35 33 32 32 32 31 31 32 30 30 29
38 39 40 40 40 40 41 40 40 39 40 40 38 39 40 40 39 39 38 37 38 38 38 38 38 38 37 35 37 37 36 34 33 32 31 31 31 31 31 31 29 28
38 38 39 39 40 40 40 39 39 39 40 39 40 39 39 38 38 38 38 38 37 37 37 37 37 37 37 37 36 36 33 32 31 31 31 30 30 30 30 31 30 28
37 38 38 38 39 38 39 39 39 39 40 40 39 38 37 37 37 37 38 38 38 37 37 37 36 35 35 35 34 34 33 32 32 31 31 30 29 29 29 29 29 28
37 37 38 38 38 38 39 39 39 40 40 40 38 36 37 37 38 37 36 36 37 37 36 36 35 34 35 35 34 33 32 31 31 31 30 29 28 28 28 28 28 28
35 36 36 37 37 37 38 39 39 39 39 39 37 37 36 37 36 36 35 35 35 35 35 35 35 35 35 34 34 33 32 31 31 31 30 29 28 27 27 27 27 27
35 35 35 35 35 36 37 38 38 38 38 37 37 36 36 35 35 35 34 35 35 34 34 35 34 34 34 35 35 35 33 32 30 30 29 28 27 26 26 26 26 26
33 33 33 33 34 35 37 38 38 36 36 36 35 35 35 35 35 34 34 34 34 34 34 34 34 34 35 35 35 35 35 32 30 29 28 28 27 26 26 25 25 24
31 30 31 32 34 34 36 37 34 34 34 33 34 35 34 34 34 34 33 34 34 33 33 34 34 34 35 35 35 35 35 34 29 29 28 28 27 26 25 25 24 23
30 29 29 31 32 34 35 35 34 34 34 34 34 35 33 34 34 34 34 33 33 33 34 34 34 34 35 35 35 35 35 34 30 28 28 27 26 26 25 24 24 22
29 28 28 29 30 31 33 34 34 35 34 34 34 34 33 33 33 33 33 33 33 34 34 33 33 35 35 34 34 34 34 33 29 27 27 26 26 25 25 24 24 23
27 27 27 27 28 30 31 32 33 33 33 34 34 35 34 34 34 34 33 33 34 33 33 32 33 34 34 34 33 33 33 31 28 26 26 25 25 25 24 24 24 23
26 26 26 27 28 29 30 32 33 34 35 35 34 33 33 34 33 33 34 34 33 33 33 33 32 33 33 33 33 33 32 30 27 26 25 24 24 24 24 24 24 24
25 25 25 26 27 28 30 33 34 35 34 35 33 33 33 33 33 33 34 34 33 33 33 32 31 32 32 32 32 32 31 29 26 26 24 24 23 24 24 24 24 25
24 24 24 26 27 28 30 31 33 34 34 34 33 34 33 34 33 32 33 33 33 33 33 31 30 30 31 31 32 32 32 28 26 24 23 22 22 22 23 23 23 25
23 23 25 26 27 28 30 31 33 33 34 34 34 33 33 33 33 33 32 33 33 33 31 30 30 30 30 30 31 32 32 27 27 24 22 22 22 21 21 22 23 23
MSLP
1011.24 1011.00 1010.76 1010.48 1010.16 1010.00 1009.80 1009.60 1009.40 1009.16 1008.96 1008.76 1008.64 1008.44 1008.40 1008.32 1008.32 1008.44 1008.48 1008.52 1008.56 1008.52 1008.44 1008.32 1008.20 1008.12 1008.16 1008.24 1008.24 1008.20 1008.12 1008.12 1008.20 1008.28 1008.44 1008.68 1008.88 1009.16 1009.48 1009.72 1010.00 1010.16
1010.84 1010.64 1010.40 1010.04 1009.76 1009.48 1009.32 1009.16 1008.96 1008.76 1008.52 1008.36 1008.20 1008.04 1007.96 1007.88 1007.88 1007.92 1007.96 1008.04 1008.08 1008.12 1008.12 1008.16 1008.12 1007.96 1007.84 1007.80 1007.80 1007.84 1007.76 1007.72 1007.80 1007.92 1008.00 1008.12 1008.32 1008.72 1008.92 1009.20 1009.52 1009.80
1010.56 1010.20 1009.96 1009.68 1009.36 1009.08 1008.88 1008.64 1008.52 1008.36 1008.16 1008.00 1007.92 1007.80 1007.64 1007.56 1007.48 1007.40 1007.44 1007.52 1007.60 1007.64 1007.68 1007.76 1007.80 1007.76 1007.64 1007.48 1007.40 1007.40 1007.32 1007.28 1007.40 1007.52 1007.64 1007.60 1007.76 1008.04 1008.32 1008.88 1009.16 1009.40
1010.16 1009.92 1009.56 1009.24 1009.00 1008.72 1008.48 1008.28 1008.04 1007.92 1007.76 1007.60 1007.48 1007.36 1007.24 1007.16 1007.16 1007.08 1006.96 1007.04 1007.16 1007.20 1007.32 1007.40 1007.44 1007.44 1007.36 1007.28 1007.20 1007.04 1006.84 1006.80 1006.80 1007.00 1007.12 1007.12 1007.20 1007.44 1007.84 1008.28 1008.60 1008.92
1009.76 1009.52 1009.24 1008.96 1008.68 1008.40 1008.20 1007.96 1007.68 1007.44 1007.28 1007.12 1007.00 1006.92 1006.84 1006.72 1006.68 1006.56 1006.60 1006.68 1006.72 1006.80 1006.88 1007.00 1007.04 1007.08 1007.12 1007.08 1007.00 1006.80 1006.56 1006.40 1006.36 1006.48 1006.56 1006.60 1006.68 1007.04 1007.40 1007.84 1008.08 1008.40
1009.40 1009.08 1008.84 1008.52 1008.36 1008.12 1007.84 1007.60 1007.36 1007.12 1006.92 1006.72 1006.48 1006.36 1006.28 1006.28 1006.24 1006.16 1006.12 1006.12 1006.24 1006.24 1006.32 1006.44 1006.52 1006.52 1006.64 1006.72 1006.72 1006.52 1006.24 1006.00 1005.80 1005.96 1006.08 1006.16 1006.28 1006.56 1007.00 1007.36 1007.64 1007.96
1008.92 1008.68 1008.40 1008.20 1007.88 1007.68 1007.44 1007.20 1006.96 1006.76 1006.60 1006.40 1006.20 1006.00 1005.88 1005.76 1005.68 1005.64 1005.60 1005.60 1005.56 1005.64 1005.72 1005.80 1005.88 1005.92 1006.00 1006.12 1006.20 1006.16 1005.92 1005.72 1005.52 1005.52 1005.56 1005.68 1005.88 1006.16 1006.52 1006.96 1007.28 1007.64
1008.52 1008.20 1008.00 1007.72 1007.48 1007.28 1007.00 1006.76 1006.56 1006.44 1006.24 1006.12 1005.92 1005.68 1005.56 1005.40 1005.28 1005.12 1005.08 1005.00 1004.96 1004.92 1005.12 1005.20 1005.24 1005.32 1005.36 1005.52 1005.64 1005.64 1005.60 1005.48 1005.32 1005.20 1005.16 1005.28 1005.52 1005.80 1006.08 1006.48 1006.96 1007.48
1008.00 1007.72 1007.44 1007.28 1007.16 1006.84 1006.64 1006.44 1006.28 1006.12 1005.96 1005.84 1005.60 1005.36 1005.24 1005.12 1004.96 1004.80 1004.72 1004.64 1004.60 1004.52 1004.64 1004.68 1004.68 1004.68 1004.76 1004.92 1005.04 1005.08 1005.12 1005.04 1004.92 1004.92 1004.92 1005.00 1005.16 1005.32 1005.64 1006.16 1006.80 1007.20
1007.64 1007.32 1007.08 1006.84 1006.56 1006.36 1006.24 1006.12 1005.92 1005.80 1005.64 1005.44 1005.28 1005.08 1004.92 1004.80 1004.68 1004.60 1004.48 1004.36 1004.24 1004.24 1004.24 1004.20 1004.20 1004.16 1004.24 1004.32 1004.44 1004.52 1004.56 1004.52 1004.52 1004.60 1004.64 1004.68 1004.76 1004.96 1005.28 1005.80 1006.32 1006.92
1007.44 1007.08 1006.68 1006.28 1006.08 1005.88 1005.68 1005.52 1005.44 1005.32 1005.16 1005.04 1004.88 1004.72 1004.60 1004.44 1004.32 1004.28 1004.20 1004.08 1004.00 1003.92 1003.84 1003.80 1003.76 1003.72 1003.80 1003.88 1003.88 1003.92 1004.00 1004.04 1004.04 1004.12 1004.24 1004.32 1004.44 1004.60 1004.92 1005.36 1005.88 1006.28
1007.08 1006.68 1006.32 1006.08 1005.80 1005.52 1005.24 1005.04 1004.88 1004.76 1004.64 1004.48 1004.44 1004.24 1004.12 1004.00 1003.96 1003.96 1003.92 1003.80 1003.72 1003.56 1003.48 1003.40 1003.32 1003.32 1003.32 1003.40 1003.40 1003.44 1003.48 1003.56 1003.64 1003.80 1003.96 1004.08 1004.16 1004.24 1004.52 1004.92 1005.40 1005.84
1006.60 1006.28 1005.96 1005.72 1005.40 1005.12 1004.92 1004.80 1004.64 1004.36 1004.16 1004.00 1003.84 1003.76 1003.68 1003.60 1003.60 1003.56 1003.48 1003.44 1003.32 1003.24 1003.12 1003.04 1002.92 1002.92 1002.92 1002.92 1002.92 1002.92 1003.00 1003.16 1003.28 1003.40 1003.56 1003.68 1003.76 1003.88 1004.12 1004.48 1004.84 1005.36
1006.20 1005.84 1005.56 1005.24 1004.96 1004.68 1004.36 1004.12 1004.00 1003.76 1003.52 1003.40 1003.40 1003.36 1003.28 1003.28 1003.24 1003.16 1003.00 1002.88 1002.76 1002.68 1002.56 1002.48 1002.48 1002.44 1002.44 1002.40 1002.40 1002.44 1002.60 1002.68 1002.76 1002.84 1003.04 1003.28 1003.44 1003.64 1003.80 1004.12 1004.48 1004.92
1005.76 1005.48 1005.00 1004.68 1004.36 1003.96 1003.64 1003.36 1003.24 1003.12 1002.88 1002.76 1002.84 1002.88 1002.88 1002.80 1002.72 1002.72 1002.64 1002.48 1002.28 1002.16 1002.00 1002.00 1002.00 1001.92 1001.88 1001.88 1001.92 1002.04 1002.16 1002.20 1002.28 1002.40 1002.52 1002.76 1003.00 1003.28 1003.52 1003.80 1004.20 1004.56
1005.52 1005.04 1004.64 1004.20 1003.88 1003.52 1003.00 1002.76 1002.60 1002.60 1002.48 1002.36 1002.40 1002.40 1002.36 1002.32 1002.28 1002.20 1002.20 1002.04 1001.80 1001.64 1001.56 1001.52 1001.44 1001.32 1001.28 1001.36 1001.40 1001.40 1001.48 1001.64 1001.72 1001.84 1002.04 1002.24 1002.48 1002.84 1003.20 1003.44 1003.76 1004.16
1005.20 1004.76 1004.40 1004.04 1003.68 1003.24 1002.64 1002.28 1002.12 1002.04 1002.04 1001.92 1001.92 1001.84 1001.76 1001.80 1001.84 1001.72 1001.56 1001.44 1001.40 1001.24 1001.12 1000.96 1000.84 1000.76 1000.76 1000.76 1000.76 1000.80 1000.84 1000.92 1001.08 1001.24 1001.48 1001.76 1002.04 1002.28 1002.60 1003.00 1003.40 1003.92
1005.08 1004.72 1004.36 1003.92 1003.48 1002.96 1002.36 1001.96 1001.76 1001.68 1001.64 1001.52 1001.44 1001.36 1001.24 1001.32 1001.16 1001.16 1001.00 1000.92 1000.84 1000.80 1000.60 1000.32 1000.20 1000.20 1000.24 1000.16 1000.04 1000.00 1000.04 1000.24 1000.44 1000.60 1000.88 1001.16 1001.40 1001.72 1002.08 1002.56 1003.08 1003.68
1005.04 1004.68 1004.24 1003.64 1003.00 1002.48 1002.04 1001.64 1001.44 1001.40 1001.32 1001.24 1001.04 1000.84 1000.88 1000.80 1000.64 1000.60 1000.52 1000.40 1000.36 1000.20 999.92 999.64 999.64 999.60 999.60 999.44 999.36 999.32 999.32 999.44 999.76 999.92 1000.24 1000.56 1000.84 1001.20 1001.64 1002.16 1002.76 1003.40
1004.80 1004.44 1004.04 1003.48 1002.84 1002.28 1001.80 1001.40 1001.16 1001.04 1000.92 1000.76 1000.60 1000.48 1000.48 1000.32 1000.20 1000.16 1000.00 999.92 999.76 999.56 999.24 999.00 998.88 998.88 998.84 998.80 998.72 998.72 998.68 998.76 999.08 999.48 999.88 1000.20 1000.56 1000.92 1001.36 1001.88 1002.40 1003.04
1004.88 1004.48 1004.00 1003.44 1002.88 1002.36 1001.72 1001.16 1000.80 1000.52 1000.40 1000.24 1000.08 1000.08 999.96 999.92 999.80 999.68 999.52 999.36 999.16 998.96 998.76 998.52 998.32 998.24 998.24 998.20 998.20 998.20 998.16 998.28 998.68 999.28 999.72 1000.08 1000.36 1000.76 1001.20 1001.68 1002.24 1002.76
1004.96 1004.40 1003.84 1003.28 1002.72 1002.08 1001.48 1000.84 1000.40 1000.12 999.92 999.80 999.72 999.56 999.52 999.44 999.32 999.16 999.00 998.76 998.56 998.44 998.28 998.04 997.80 997.72 997.72 997.72 997.76 997.80 997.88 998.00 998.52 999.04 999.52 999.96 1000.32 1000.72 1001.16 1001.60 1002.08 1002.56
1004.88 1004.32 1003.68 1003.08 1002.44 1001.72 1000.92 1000.36 1000.00 999.72 999.48 999.28 999.20 999.20 999.04 998.92 998.76 998.64 998.40 998.16 998.00 997.88 997.76 997.52 997.36 997.32 997.32 997.36 997.44 997.44 997.60 997.72 998.40 998.84 999.32 999.80 1000.24 1000.64 1001.08 1001.52 1001.92 1002.36
1004.76 1004.16 1003.48 1002.80 1002.20 1001.64 1000.88 1000.20 999.76 999.40 999.16 998.96 998.96 998.80 998.60 998.44 998.32 998.12 997.92 997.72 997.56 997.36 997.20 997.04 996.96 996.96 997.04 997.08 997.08 997.12 997.28 997.64 998.16 998.60 999.20 999.64 1000.16 1000.56 1000.92 1001.40 1001.72 1002.12
1004.80 1004.12 1003.32 1002.52 1001.88 1001.28 1000.68 1000.16 999.60 999.20 998.92 998.76 998.60 998.36 998.20 997.96 997.84 997.68 997.44 997.16 996.96 996.76 996.60 996.68 996.72 996.72 996.80 996.80 996.80 996.80 996.96 997.48 997.96 998.44 999.04 999.52 1000.00 1000.52 1000.88 1001.28 1001.72 1002.04
1004.68 1003.96 1003.04 1002.24 1001.52 1000.96 1000.40 999.88 999.40 999.08 998.72 998.48 998.24 998.08 997.88 997.64 997.44 997.20 996.96 996.64 996.44 996.36 996.36 996.48 996.56 996.48 996.56 996.56 996.52 996.56 996.64 997.36 997.64 998.20 998.80 999.36 999.92 1000.40 1001.00 1001.36 1001.64 1002.00
Wind_Speed
16 15 15 14 13 12 12 12 11 12 11 11 11 11 11 10 7 7 8 8 8 8 9 10 11 11 11 12 12 12 12 13 13 12 14 14 14 16 14 15 15 12
18 17 15 15 13 13 12 12 12 12 12 12 11 12 12 12 11 8 8 7 8 9 9 9 10 12 12 11 12 12 12 12 14 11 13 16 14 15 16 15 15 12
18 18 17 17 15 16 16 14 13 12 12 12 12 11 11 11 12 10 9 8 8 9 9 9 10 12 12 12 12 12 12 13 14 13 13 15 14 15 15 13 12 14
18 18 17 17 16 16 15 14 13 12 12 11 11 11 11 9 10 11 10 10 9 9 9 9 10 10 11 12 12 12 14 14 14 13 14 13 14 15 14 13 13 11
17 17 16 15 15 16 15 15 15 14 14 13 12 12 12 12 11 11 11 9 9 9 9 10 10 10 11 11 12 12 13 13 13 13 13 13 13 13 13 13 13 13
17 16 16 15 15 15 14 15 15 15 15 14 14 13 12 13 12 12 12 12 11 9 10 8 9 10 10 11 11 12 13 12 13 14 15 14 13 12 11 13 13 12
16 16 16 15 15 15 15 15 14 14 14 14 13 13 13 13 13 13 13 12 13 11 10 8 9 10 9 10 11 12 12 13 13 14 15 13 13 13 13 13 13 10
17 16 14 14 15 15 15 15 14 13 13 13 15 15 13 13 13 12 12 13 13 13 10 10 10 10 10 10 11 12 13 11 13 14 15 14 13 13 11 9 9 9
16 16 15 15 14 14 14 14 14 13 13 14 14 14 13 12 12 12 13 13 14 14 11 10 11 11 10 11 11 13 14 13 13 14 14 13 13 11 10 8 8 9
16 16 17 16 15 14 15 14 14 14 13 14 14 13 13 12 13 13 13 13 14 14 14 14 14 13 12 11 13 13 14 14 13 13 12 11 11 10 9 11 13 10
15 15 16 17 17 15 16 17 15 14 14 14 13 13 12 12 12 11 12 12 12 14 14 14 14 14 13 12 12 12 14 14 12 12 12 12 9 9 14 14 14 13
16 15 16 16 16 16 16 15 15 16 15 14 11 13 13 12 12 11 11 12 12 13 13 14 15 14 15 13 12 12 12 11 12 12 12 12 9 10 15 13 14 11
16 16 15 15 16 15 15 14 15 16 16 15 13 12 13 13 13 14 13 13 13 12 14 14 15 15 15 14 13 12 11 12 13 11 11 11 12 13 13 14 14 13
17 17 17 17 16 15 15 14 14 15 15 13 11 11 11 11 12 14 14 13 13 13 14 13 11 11 14 13 12 10 10 11 11 12 12 9 13 12 12 13 14 14
20 19 17 18 18 17 17 15 14 15 16 13 10 9 9 11 12 14 14 13 13 14 15 13 11 12 13 13 12 11 11 11 12 12 12 10 10 13 12 12 13 13
20 20 19 19 18 17 17 15 13 13 14 14 12 10 10 11 12 11 11 13 15 15 13 10 11 11 13 17 16 11 11 11 11 12 12 10 10 12 12 13 13 12
20 18 18 18 17 17 17 15 15 13 13 14 11 10 11 11 11 13 13 11 13 13 13 11 9 10 16 20 22 26 17 11 11 12 12 11 10 11 11 10 12 12
16 17 18 18 17 17 17 15 14 13 13 13 12 11 12 11 11 11 13 13 12 12 13 13 11 12 19 21 24 25 23 13 9 10 11 11 12 11 10 9 12 11
16 15 15 16 16 15 14 14 12 11 12 12 13 11 11 11 11 12 12 12 11 12 13 12 9 14 21 24 24 25 26 21 9 11 13 14 10 11 11 10 9 10
16 15 15 16 16 15 14 14 12 12 11 10 11 10 11 11 11 14 12 11 11 12 12 12 11 13 20 22 23 24 25 22 9 11 12 14 10 10 10 10 11 10
16 16 16 16 16 16 15 14 14 13 11 9 8 9 10 10 10 11 11 10 11 11 12 12 11 16 19 22 21 23 23 21 9 11 9 9 7 9 9 10 10 9
17 17 16 15 16 16 15 14 13 12 10 9 10 10 9 8 10 11 12 12 11 11 10 11 10 15 20 20 20 20 21 12 8 11 10 9 9 8 9 9 9 10
18 18 17 16 15 16 13 12 10 11 10 9 10 10 11 11 12 11 11 11 11 11 12 12 11 12 17 18 18 19 16 8 10 10 10 10 10 10 10 11 9 10
19 18 16 15 14 14 14 11 10 9 9 8 9 10 11 11 11 10 11 10 11 13 13 12 10 9 13 15 16 17 16 7 10 9 10 9 9 10 9 9 11 19
18 18 17 16 15 14 13 12 11 10 10 10 10 10 11 11 11 11 12 11 11 12 13 11 9 9 12 14 15 16 14 8 10 8 9 9 9 9 9 9 11 15
18 18 17 16 14 14 12 11 10 10 11 11 10 10 10 11 11 11 12 12 10 9 7 8 8 8 8 12 15 15 17 8 9 9 9 9 9 9 8 8 9 10
Wind_Direction
298 299 296 296 294 291 289 288 284 284 284 286 285 287 285 280 256 244 248 254 253 254 257 255 247 241 236 234 230 227 229 228 225 220 214 210 214 213 211 204 202 199
300 299 295 293 290 290 288 286 284 283 285 283 283 285 286 285 277 259 250 246 247 248 245 248 248 244 239 233 229 227 229 228 228 222 219 211 214 212 212 202 199 200
298 298 295 293 292 291 291 290 285 282 281 282 281 281 282 282 275 268 259 247 247 250 248 241 244 245 240 236 233 229 230 228 227 222 219 217 214 215 216 211 204 198
297 297 296 293 291 291 291 290 288 283 281 279 279 281 282 279 274 271 255 252 250 246 246 244 242 244 240 234 231 232 232 230 227 223 222 222 220 218 216 210 206 192
300 298 294 291 292 291 290 288 287 286 284 283 284 282 281 281 278 275 270 252 240 243 239 238 237 238 237 236 229 233 232 231 226 221 222 222 219 212 212 208 201 192
299 299 297 294 291 291 290 289 288 287 287 287 286 285 283 282 278 274 274 271 258 242 241 233 236 234 229 230 231 233 234 232 227 219 221 221 218 209 205 205 199 191
304 304 301 297 294 292 290 289 288 288 287 286 288 287 287 284 280 277 275 273 270 259 244 238 235 234 230 227 227 233 234 234 232 222 218 218 216 213 204 200 202 193
302 303 300 298 297 296 294 293 290 288 289 286 284 284 284 281 279 278 277 276 275 271 254 243 239 236 230 222 226 230 232 231 233 226 220 218 213 213 198 189 194 190
302 301 302 299 296 296 295 294 293 292 290 287 284 284 282 279 277 277 277 277 274 272 263 256 248 241 232 222 224 227 229 228 226 222 218 214 209 205 192 181 182 190
303 304 303 302 300 297 294 295 294 290 288 285 281 280 280 277 276 275 275 274 273 269 269 269 265 258 246 228 225 226 228 227 223 218 218 214 205 198 179 191 200 193
306 302 301 303 302 300 298 296 293 293 290 286 283 278 279 279 275 274 273 271 269 268 268 266 263 259 254 237 227 230 229 228 224 223 220 214 204 192 208 206 203 204
305 302 299 298 299 300 296 294 293 294 293 287 280 282 283 283 280 278 276 274 272 272 270 267 263 260 255 247 235 232 228 224 228 227 224 220 209 201 212 203 203 191
303 302 301 298 296 293 293 289 285 286 288 284 277 273 278 283 284 281 276 272 268 267 266 264 263 259 255 250 243 238 226 229 232 227 224 222 217 214 207 207 201 192
301 300 298 296 293 287 283 283 281 281 283 281 267 260 258 256 269 277 276 273 269 270 271 269 261 257 251 247 240 230 232 233 226 223 218 209 218 212 206 203 202 197
298 297 294 290 286 283 279 278 277 280 281 273 253 255 253 253 257 266 267 264 261 267 273 267 258 253 249 246 244 229 233 233 225 219 213 205 198 208 203 197 194 197
297 295 293 292 286 282 278 276 275 277 278 275 264 252 251 250 257 257 262 265 268 272 270 262 256 254 240 238 234 230 228 229 220 216 208 197 188 197 197 196 192 192
298 298 299 295 289 283 278 274 274 276 272 271 261 249 251 261 267 269 262 257 268 272 269 258 249 242 235 245 246 245 242 224 211 209 202 195 187 183 183 180 186 187
304 303 300 297 292 283 278 275 274 273 266 261 259 257 263 271 273 266 269 274 274 267 261 258 250 238 243 246 247 247 246 231 198 199 195 195 195 187 180 168 177 173
301 301 299 298 297 290 278 275 272 269 264 260 257 254 267 269 265 262 270 275 267 262 262 259 246 239 245 247 249 249 247 241 194 197 197 200 187 181 170 164 159 165
307 306 306 305 303 298 290 281 276 271 262 255 257 260 269 272 273 277 275 267 260 262 264 263 256 247 247 251 254 253 249 244 199 193 194 198 177 168 166 163 163 160
313 309 304 301 299 298 293 284 278 276 268 266 269 277 281 277 275 276 272 264 261 260 266 264 259 258 257 257 256 254 250 244 190 188 177 181 157 163 160 161 160 160
310 308 304 300 297 293 288 280 278 278 275 278 284 285 277 270 273 269 265 262 259 257 260 261 254 251 257 258 256 252 247 238 169 174 172 176 174 148 158 161 161 158
310 306 302 297 298 299 289 277 282 286 289 291 287 280 278 276 274 270 268 266 265 264 265 262 260 249 256 255 252 246 240 222 161 169 165 162 165 166 163 169 163 163
315 309 302 298 297 298 301 300 293 287 287 285 288 288 283 277 270 266 266 265 264 267 265 265 259 251 252 254 249 240 230 191 160 162 158 157 159 165 164 168 172 176
313 308 302 296 292 292 292 290 287 288 294 293 290 283 278 278 272 271 270 264 263 261 261 258 255 253 249 245 243 233 224 164 165 147 154 157 150 157 162 167 176 182
311 305 300 296 290 288 289 287 287 289 290 287 284 280 280 277 276 272 270 271 269 263 254 249 251 252 241 234 237 228 217 155 166 157 149 142 146 148 149 153 164 173